This is the latest recevied weather packets stored in our database for station/object WA4IKQ. If no packets are shown the sender has not sent any weather packets the latest 10 day(s).
| Time | Temp. | Humidity | Pressure | Rain* | Wind** | Luminosity | Snow |
|---|---|---|---|---|---|---|---|
| 1778292730 | 24.44° C | 90% | 1014.2 hPa | 0 mm | 0 m/s | - | - |
| 1778292569 | 24.44° C | 90% | 1014.2 hPa | 0 mm | 1.79 m/s, 32° | - | - |
| 1778292432 | 24.44° C | 90% | 1014.2 hPa | 0 mm | 1.79 m/s, 32° | - | - |
| 1778292287 | 24.44° C | 90% | 1014.1 hPa | 0 mm | 0.45 m/s, 30° | - | - |
| 1778292130 | 24.44° C | 90% | 1014.1 hPa | 0 mm | 0.45 m/s, 30° | - | - |
| 1778291894 | 24.44° C | 90% | 1014.1 hPa | 0 mm | 0 m/s | - | - |
| 1778291828 | 24.44° C | 90% | 1014.1 hPa | 0 mm | 0 m/s | - | - |
| 1778291631 | 24.44° C | 89% | 1014 hPa | 0 mm | 0 m/s | - | - |
| 1778291530 | 24.44° C | 89% | 1014 hPa | 0 mm | 0 m/s | - | - |
| 1778291358 | 24.44° C | 89% | 1013.9 hPa | 0 mm | 0 m/s | - | - |
| 1778291228 | 24.44° C | 89% | 1013.9 hPa | 0 mm | 0 m/s | - | - |
| 1778290972 | 24.44° C | 89% | 1013.9 hPa | 0 mm | 1.34 m/s, 14° | - | - |
| 1778290929 | 24.44° C | 89% | 1013.9 hPa | 0 mm | 1.34 m/s, 14° | - | - |
| 1778290738 | 25° C | 88% | 1013.7 hPa | 0 mm | 1.79 m/s, 37° | - | - |
| 1778290703 | 25° C | 88% | 1013.7 hPa | 0 mm | 1.79 m/s, 37° | - | - |
| 1778290629 | 25° C | 88% | 1013.7 hPa | 0 mm | 1.79 m/s, 37° | - | - |
| 1778289727 | 25.56° C | 86% | 1013.6 hPa | 0 mm | 1.79 m/s, 73° | - | - |
| 1778289494 | 25.56° C | 85% | 1013.7 hPa | 0 mm | 1.79 m/s, 87° | - | - |
| 1778289427 | 25.56° C | 85% | 1013.7 hPa | 0 mm | 1.79 m/s, 87° | - | - |
| 1778289231 | 26.11° C | 83% | 1013.8 hPa | 0 mm | 2.24 m/s, 24° | - | - |
| 1778288892 | 26.67° C | 80% | 1013.8 hPa | 0 mm | 1.34 m/s, 55° | - | - |
| 1778288679 | 27.22° C | 77% | 1013.9 hPa | 0 mm | 0.89 m/s, 343° | - | - |
| 1778288528 | 27.22° C | 77% | 1013.9 hPa | 0 mm | 0.89 m/s, 343° | - | - |
| 1778288293 | 28.33° C | 73% | 1013.9 hPa | 0 mm | 2.24 m/s, 205° | - | - |
| 1778288236 | 28.33° C | 73% | 1013.9 hPa | 0 mm | 2.24 m/s, 205° | - | - |
* Rain latest hour (hover to see other rain measurements)
** Current wind speed in m/s (hover to see current wind gust speed)